Home > Weather > Letterkenny > Past weeks

Flag for Ireland Past Weather in Letterkenny, Ireland — Yesterday and Last 2 Weeks

Now
48 °F

Smoke.


Feels Like: 48 °F
Forecast: 46 / 64 °F
Wind: 1 mph from Northeast

Location: Castlederg

Current Time: May 28, 2016 at 1:18:30 AM

Latest Report: May 28, 2016 at 12:00 AM


Visibility: 4 mi

Pressure: 30.06 "Hg

Humidity: 92%

Dew Point: 46 °F

Location of LetterkennyLocation

Past Weather in Letterkenny — Graph

°F

Letterkenny Temperature Yesterday

Maximum temperature yesterday: 63 °F (at 4:00 PM)
Minimum temperature yesterday: 50 °F (at 1:00 AM)
Average temperature yesterday: 54 °F

High & Low Weather Summary for the Past Weeks

 TemperatureHumidityPressure
High68 °F (May 13, 2:00 PM)100% (May 22, 8:00 AM)30.27 "Hg (May 22, 8:00 AM)
Low31 °F (May 16, 6:00 AM)47% (May 13, 3:00 PM)29.41 "Hg (May 21, 5:00 AM)
Average50 °F81%29.96 "Hg
* Reported May 13 12:00 AM — May 28 12:00 AM, Letterkenny, Weather by CustomWeather, © 2016

Note: Actual official high and low records may vary slightly from our data, if they occured in-between our weather recording intervals... More about our weather records

Advertising

Letterkenny Weather History for the Previous 24 Hours

Scroll right to see more
 ConditionsComfort  
Time TempWeatherWind HumidityBarometerVisibility
12:00 AM
Sat, May 28
48 °FSmoke.1 mph92%30.06 "Hg4 mi
11:00 PM
Fri, May 27
50 °FSmoke.No wind89%30.06 "Hg4 mi
10:00 PM54 °FSmoke.2 mph84%30.06 "Hg6 mi
9:00 PM58 °FCool.2 mph81%30.04 "Hg9 mi
8:00 PM58 °FCool.3 mph78%30.04 "Hg12 mi
7:00 PM59 °FCool.7 mph77%30.04 "Hg10 mi
6:00 PM60 °FCool.8 mph74%30.04 "Hg14 mi
5:00 PM61 °FCool.6 mph69%30.04 "Hg28 mi
4:00 PM63 °FMild.3 mph58%30.04 "Hg28 mi
3:00 PM63 °FMild.6 mph71%30.04 "Hg28 mi
2:00 PM60 °FCool.8 mph77%30.05 "Hg13 mi
1:00 PM59 °FCool.9 mph81%30.06 "Hg19 mi
12:00 PM56 °FCool.7 mph88%30.07 "Hg16 mi
11:00 AM53 °FCool.8 mph90%30.07 "Hg10 mi
10:00 AM53 °FCool.6 mph91%30.07 "Hg25 mi
9:00 AM52 °FCool.7 mph94%30.07 "Hg7 mi
8:00 AM51 °FCool.6 mph95%30.06 "Hg4 mi
7:00 AM50 °FDrizzle. Cloudy.5 mph95%30.06 "Hg4 mi
6:00 AM50 °FLight rain. Cloudy.3 mph95%30.05 "Hg2 mi
5:00 AM50 °FCool.2 mph93%30.05 "Hg6 mi
4:00 AM50 °FCool.1 mph93%30.05 "Hg12 mi
3:00 AM50 °FCool.3 mph92%30.05 "Hg9 mi
2:00 AM50 °FCool.2 mph93%30.06 "Hg9 mi
1:00 AM50 °FSmoke.1 mph93%30.06 "Hg7 mi
Weather by CustomWeather, © 2016

See weather overviewHow to use our weather pages